Naples, Italy

9:03 AM CEST on August 25, 2016 (GMT +0200)
Naples

Weather History for 16289 - September, 2013

Change the Weather History Date:

Tuesday, September 24, 2013

  Actual Average Record
Temperature  
Mean Temperature 69 °F -  
Max Temperature 78 °F 73 °F - ()
Min Temperature 60 °F 54 °F - ()
Cooling Degree Days 4    
Growing Degree Days 19 (Base 50)    
Moisture  
Dew Point 57 °F    
Average Humidity 66    
Maximum Humidity 83    
Minimum Humidity 44    
Precipitation  
Precipitation 0.00 in 0.16 in - ()
Sea Level Pressure  
Sea Level Pressure 30.06 in    
Wind  
Wind Speed 3 mph ()    
Max Wind Speed 10 mph    
Max Gust Speed -    
T = Trace of Precipitation, MM = Missing Value Source: Averaged Metar Reports

Daily Weather History Graph

Daily Weather History Graph

Search for Another Location

Airport or City:

Trip Planner

Search our weather history database for the weather conditions in past years. The results will help you decide how hot, cold, wet, or windy it might be!

Date:

Astronomy

Sep. 24, 2013 Rise Set
Actual Time 6:52 AM CEST 6:56 PM CEST
Civil Twilight 6:24 AM CEST 7:23 PM CEST
Nautical Twilight 5:52 AM CEST 7:55 PM CEST
Astronomical Twilight 5:20 AM CEST 8:28 PM CEST
Moon 9:58 PM CEST (9/24) 11:53 AM CEST (9/24)
Length of Visible Light 12h 59m
Length of Day
12h 04m
Waning Gibbous, 75% of the Moon is Illuminated
Sep 24
Waning Gibbous
Sep 27
Last Quarter
Oct 5
New
Oct 12
First Quarter
Oct 19
Full

Hourly Weather History & Observations

Time (CEST) Temp. Dew Point Humidity Pressure Visibility Wind Dir Wind Speed Gust Speed Precip Events Conditions
12:20 AM 64.4 °F 55.4 °F 73% 30.09 in - Calm Calm - N/A   Clear
12:50 AM 64.4 °F 55.4 °F 73% 30.06 in - NE 3.5 mph - N/A   Clear
1:20 AM 62.6 °F 53.6 °F 72% 30.06 in - NE 3.5 mph - N/A   Clear
1:50 AM 62.6 °F 55.4 °F 77% 30.06 in - NE 3.5 mph - N/A   Clear
2:20 AM 60.8 °F 53.6 °F 77% 30.06 in - Calm Calm - N/A   Clear
2:50 AM 60.8 °F 55.4 °F 82% 30.06 in - North 3.5 mph - N/A   Clear
3:20 AM 62.6 °F 53.6 °F 72% 30.06 in - NNE 3.5 mph - N/A   Clear
3:50 AM 60.8 °F 53.6 °F 77% 30.06 in - North 3.5 mph - N/A   Clear
4:20 AM 60.8 °F 53.6 °F 77% 30.06 in - NNW 4.6 mph - N/A   Clear
4:50 AM 60.8 °F 53.6 °F 77% 30.06 in - North 3.5 mph - N/A   Clear
5:20 AM 60.8 °F 53.6 °F 77% 30.06 in - NNE 3.5 mph - N/A   Clear
5:50 AM 60.8 °F 51.8 °F 72% 30.06 in - North 3.5 mph - N/A   Clear
6:20 AM 60.8 °F 53.6 °F 77% 30.04 in - North 3.5 mph - N/A   Clear
6:50 AM 60.8 °F 51.8 °F 72% 30.06 in - Variable 1.2 mph - N/A   Clear
7:20 AM 60.8 °F 51.8 °F 72% 30.06 in - North 3.5 mph - N/A   Clear
7:50 AM 62.6 °F 51.8 °F 68% 30.06 in - North 4.6 mph - N/A   Clear
8:20 AM 64.4 °F 53.6 °F 68% 30.06 in - North 3.5 mph - N/A   Clear
8:50 AM 68.0 °F 53.6 °F 60% 30.06 in - Calm Calm - N/A   Clear
9:20 AM 68.0 °F 55.4 °F 64% 30.06 in - NE 4.6 mph - N/A   Clear
9:50 AM 71.6 °F 55.4 °F 57% 30.06 in - Variable 2.3 mph - N/A   Clear
10:20 AM 73.4 °F 55.4 °F 53% 30.06 in - Variable 2.3 mph - N/A   Clear
10:50 AM 73.4 °F 53.6 °F 50% 30.06 in - NNE 3.5 mph - N/A   Clear
11:20 AM 75.2 °F 55.4 °F 50% 30.06 in - Variable 3.5 mph - N/A   Clear
11:50 AM 77.0 °F 53.6 °F 44% 30.06 in - Variable 2.3 mph - N/A   Clear
12:20 PM 75.2 °F 59.0 °F 57% 30.06 in - SSW 6.9 mph - N/A   Clear
12:50 PM 77.0 °F 60.8 °F 57% 30.06 in - South 8.1 mph - N/A   Clear
1:20 PM 77.0 °F 59.0 °F 54% 30.06 in - South 8.1 mph - N/A   Clear
1:50 PM 77.0 °F 57.2 °F 50% 30.06 in - South 8.1 mph - N/A   Clear
2:20 PM 77.0 °F 57.2 °F 50% 30.06 in - South 8.1 mph - N/A   Clear
2:50 PM 77.0 °F 55.4 °F 47% 30.06 in - South 9.2 mph - N/A   Clear
3:20 PM 78.8 °F 55.4 °F 44% 30.04 in - South 8.1 mph - N/A   Clear
3:50 PM 77.0 °F 57.2 °F 50% 30.04 in - NW 6.9 mph - N/A   Clear
4:20 PM 77.0 °F 57.2 °F 50% 30.04 in - West 9.2 mph - N/A   Clear
4:50 PM 77.0 °F 59.0 °F 54% 30.04 in - West 10.4 mph - N/A   Clear
5:20 PM 75.2 °F 59.0 °F 57% 30.04 in - West 9.2 mph - N/A   Clear
5:50 PM 75.2 °F 59.0 °F 57% 30.04 in - WNW 9.2 mph - N/A   Clear
6:20 PM 73.4 °F 60.8 °F 65% 30.04 in - WNW 9.2 mph - N/A   Clear
6:50 PM 71.6 °F 60.8 °F 69% 30.04 in - WNW 8.1 mph - N/A   Clear
7:20 PM 71.6 °F 60.8 °F 69% 30.04 in - West 6.9 mph - N/A   Clear
7:50 PM 69.8 °F 60.8 °F 73% 30.06 in - WNW 4.6 mph - N/A   Clear
8:20 PM 69.8 °F 60.8 °F 73% 30.06 in - WNW 3.5 mph - N/A   Clear
8:50 PM 69.8 °F 60.8 °F 73% 30.06 in - NW 3.5 mph - N/A   Clear
9:20 PM 68.0 °F 60.8 °F 78% 30.06 in - Variable 1.2 mph - N/A   Clear
9:50 PM 68.0 °F 60.8 °F 78% 30.06 in - Calm Calm - N/A   Clear
10:20 PM 66.2 °F 59.0 °F 78% 30.06 in - Variable 1.2 mph - N/A   Clear
10:50 PM 68.0 °F 60.8 °F 78% 30.06 in - NE 1.2 mph - N/A   Clear
11:20 PM 66.2 °F 60.8 °F 83% 30.06 in - East 1.2 mph - N/A   Clear
11:50 PM 64.4 °F 59.0 °F 83% 30.06 in - Calm Calm - N/A   Clear